Location: Feydey
(46.3431°N, 7.0106°E)
Time: 09:08:22
(UTC+00:00)

NOSS 2-3 (C) - Pass Details

Date: 20 June 2021
Orbit: 555 x 1656 km, 63.4° (Epoch: 28 July)

Event Time Altitude Azimuth Distance (km) Brightness Sun altitude
Exits shadow 23:07:28 38° 123° (ESE) 910 4.1 -20.0°
Maximum altitude 23:07:35 39° 119° (ESE) 911 4.1 -20.0°
Drops below altitude 10° 23:11:53 10° 51° (NE) 2,114 6.7 -20.0°
Sets 23:14:33 0° 44° (NE) 3,175 7.8 -20.1°
